GFSGL_sfc_temp_084.txt.gz
Temp
47 45 44 44 44 43 43 43 43 43 42 43 43 42 41 41 40 38 38 38 37 37 37 36 37 37 37 36 36 37 37 37 35 41 40 40 38 41 45 47 47 46 46
45 44 43 43 43 42 41 41 42 42 42 41 41 41 40 40 39 38 37 38 36 36 36 36 37 43 39 38 37 38 39 39 37 36 42 42 37 39 41 40 45 49 46
44 43 42 42 41 40 40 41 40 40 40 40 40 39 39 40 39 38 37 37 36 37 38 38 39 39 38 39 39 39 39 41 40 39 38 42 41 38 39 39 40 41 46
43 42 42 41 41 40 40 40 40 39 39 38 39 39 39 39 38 38 37 36 37 39 40 40 40 39 39 39 39 40 40 40 40 39 40 41 42 41 42 40 38 38 40
42 42 42 41 40 40 39 39 39 38 39 38 38 38 37 38 41 38 38 38 38 39 43 42 41 45 49 48 45 43 42 39 38 38 38 38 39 40 40 43 41 42 42
41 42 42 41 40 39 39 38 38 37 36 36 36 35 34 40 46 49 47 43 42 43 42 41 43 46 45 49 50 51 49 43 41 39 38 36 38 40 42 42 41 38 37
40 40 40 40 39 39 38 38 37 35 34 34 33 33 34 35 45 48 49 46 44 43 42 42 41 44 46 42 45 48 48 49 49 44 40 40 40 42 43 41 41 41 41
39 39 39 39 38 38 37 36 34 33 33 32 33 34 34 36 45 47 48 45 43 43 43 43 40 41 41 42 42 42 41 42 44 44 42 41 42 44 43 43 43 43 44
39 38 38 38 37 37 36 35 34 32 31 31 33 33 31 33 42 46 47 43 42 41 43 44 43 42 46 48 44 42 40 41 48 49 49 50 51 51 48 42 39 39 38
39 39 38 37 37 36 35 34 33 31 32 34 34 33 36 36 42 45 46 42 40 41 41 42 46 45 48 47 44 42 38 39 39 40 41 43 46 45 50 46 42 40 39
39 39 38 37 36 35 34 32 31 30 31 31 32 34 35 36 38 45 47 43 41 40 40 40 41 44 47 48 47 42 40 42 42 39 38 39 42 42 42 43 44 43 41
38 38 36 35 37 38 32 31 30 30 29 30 31 34 40 38 42 44 46 46 47 42 40 40 39 45 47 48 46 46 47 45 37 36 38 40 40 40 43 44 44 44 44
37 35 34 35 35 33 31 30 29 30 30 31 33 35 36 39 39 44 45 46 46 42 41 42 46 45 45 42 42 44 44 38 36 35 36 36 36 38 37 37 39 41 42
35 34 33 33 35 32 32 31 29 30 31 33 35 35 36 37 36 38 39 39 42 42 42 39 41 42 41 39 38 38 39 37 36 36 36 37 39 40 40 39 37 39 40
33 33 33 33 31 30 30 30 32 32 36 37 37 35 35 34 37 43 43 41 41 42 42 37 34 33 32 33 33 35 37 37 35 36 36 36 37 38 39 42 41 39 39
33 33 32 32 30 30 29 31 39 41 42 43 43 41 40 43 45 45 45 44 44 44 37 32 32 32 32 32 33 33 34 36 36 36 35 36 36 37 38 40 41 41 39
31 32 32 32 30 29 29 29 30 35 40 41 42 42 43 43 44 44 43 43 42 40 33 32 32 33 33 33 32 33 31 34 36 36 35 35 36 37 37 38 40 41 40
32 39 31 30 29 28 29 29 30 32 31 33 38 39 41 42 42 42 42 40 33 35 33 32 32 33 33 33 33 32 33 34 35 35 35 35 35 35 35 36 37 38 39
32 31 31 30 29 32 30 30 34 33 32 32 33 36 38 40 41 41 40 33 32 31 32 32 33 33 33 33 34 34 34 34 35 35 34 34 35 35 35 37 38 40 40
32 37 37 30 30 30 29 33 32 32 32 32 31 32 34 35 33 33 34 33 32 33 33 32 33 33 33 33 33 34 34 34 35 34 34 35 35 36 36 37 38 40 40
30 30 36 29 29 30 31 32 32 32 31 31 32 35 39 34 32 32 32 32 33 32 32 32 33 33 34 34 33 33 33 34 35 34 35 35 37 35 37 39 41 42 40
29 29 30 29 30 31 33 33 32 32 31 31 32 34 37 33 32 32 32 32 33 33 34 33 33 33 33 33 34 33 33 34 35 34 34 35 35 36 38 39 42 41 40
29 29 29 29 30 34 33 32 32 30 32 32 33 31 32 32 32 32 32 32 33 33 34 34 33 33 34 34 35 34 33 34 35 33 33 33 34 36 38 39 41 42 42
30 29 28 28 31 32 30 32 32 33 32 32 31 32 32 32 31 32 32 32 33 33 34 33 33 33 34 34 35 35 36 36 37 36 33 33 35 36 38 41 42 43 43
29 28 28 27 31 30 31 31 31 32 31 32 32 32 32 33 32 32 32 33 33 33 33 33 33 33 34 35 35 35 36 37 37 36 33 33 36 36 39 41 43 43 43
29 29 28 27 27 30 31 30 31 31 30 32 32 33 33 32 32 32 32 33 33 33 33 33 33 33 34 35 36 36 36 37 37 38 35 34 36 38 41 42 43 43 43

GFSGL_sfc_temp_087.txt.gz
Temp
56 55 55 54 54 55 55 54 55 54 54 54 53 53 52 52 53 52 51 51 49 50 50 49 49 50 49 49 49 48 47 47 43 48 51 54 53 53 55 57 57 57 57
54 54 53 54 54 55 55 54 54 54 53 52 52 51 51 51 51 50 50 50 49 48 49 48 48 50 49 49 48 48 48 49 46 43 48 49 51 52 53 53 54 56 56
53 53 53 53 53 53 53 53 52 52 52 52 50 50 50 50 49 50 49 49 49 49 48 48 48 48 47 48 48 47 47 48 47 45 45 49 50 51 50 51 51 52 54
52 52 52 52 52 52 51 51 51 51 50 51 50 49 48 48 48 48 48 48 48 48 48 48 49 48 47 48 48 47 47 44 42 40 39 44 46 48 48 47 47 49 49
52 52 51 51 51 50 50 50 50 49 50 49 48 48 48 47 48 48 49 49 48 48 48 49 49 49 49 50 45 41 40 40 39 38 38 38 39 42 40 45 45 45 47
51 51 50 50 49 49 49 49 48 48 48 48 47 46 45 46 47 48 49 48 48 47 46 47 48 48 49 50 50 51 49 44 42 40 37 38 38 40 42 42 43 42 39
50 50 49 49 48 48 48 47 47 47 47 46 45 45 44 46 46 48 48 48 45 45 44 44 45 47 48 48 48 49 49 49 50 47 43 42 42 45 47 45 45 44 45
49 48 48 48 47 47 46 46 46 46 45 44 44 44 44 44 45 46 48 46 45 45 44 44 44 46 48 46 45 44 45 48 48 48 48 49 49 50 49 49 48 49 50
48 48 48 47 46 45 44 45 45 44 44 43 43 42 42 42 44 46 47 44 44 44 45 45 46 45 47 49 45 43 42 42 47 49 50 51 51 51 50 44 43 42 40
47 47 46 46 45 44 44 44 43 42 41 42 42 43 42 41 43 45 46 43 41 41 45 45 45 46 46 49 45 45 43 42 41 42 44 46 48 48 49 48 45 38 38
46 46 46 45 44 44 43 43 41 41 40 40 40 41 42 43 43 45 46 44 43 43 40 41 42 45 46 48 48 43 41 45 45 43 43 43 40 42 42 46 47 47 43
45 44 44 44 43 44 41 41 41 40 38 39 38 39 42 43 44 44 46 47 47 42 41 41 43 45 46 47 47 46 47 46 40 39 38 37 37 40 42 43 44 46 48
44 43 43 43 43 42 40 40 39 39 37 37 37 37 37 41 43 43 45 45 46 43 45 45 45 42 43 44 43 44 44 40 40 36 35 37 39 41 43 44 46 47 48
44 43 42 41 43 41 40 40 38 37 36 37 36 37 36 40 40 42 42 40 42 42 43 40 42 43 42 42 41 40 40 41 38 36 36 39 40 39 40 42 42 43 42
42 41 41 41 40 39 39 38 38 40 38 37 38 37 36 37 40 44 43 42 42 43 42 40 38 38 37 37 38 38 39 39 38 38 37 37 38 38 39 41 43 41 40
41 40 39 40 38 38 37 37 40 40 42 42 42 41 41 43 44 45 45 44 43 43 39 36 35 36 35 36 35 36 37 37 38 38 37 36 35 36 37 40 40 39 39
39 39 39 38 37 36 35 35 33 37 41 41 42 42 42 42 43 43 43 43 42 41 35 35 34 33 34 33 34 34 36 37 38 37 37 37 37 38 38 36 37 37 38
39 39 38 37 36 36 36 35 34 33 32 35 40 40 41 41 42 42 42 40 36 37 36 34 34 33 34 32 34 35 36 36 36 36 37 37 37 35 34 35 35 35 36
38 38 38 37 36 37 36 35 34 34 34 34 35 37 39 40 40 41 40 36 34 34 34 33 33 34 33 34 34 35 35 35 36 36 37 37 37 35 34 35 35 36 36
37 37 38 36 36 35 35 34 34 34 33 33 33 34 36 36 36 36 36 36 35 35 35 34 34 34 34 34 34 34 34 35 36 36 37 37 35 36 35 35 35 35 37
36 36 36 35 34 34 34 34 34 33 33 32 33 35 39 35 34 34 34 35 34 34 34 33 33 33 34 34 34 34 34 36 36 37 37 38 38 37 38 36 37 39 40
35 35 34 34 34 33 34 35 33 33 33 33 34 36 37 36 35 34 34 34 35 35 35 33 33 34 34 34 34 34 34 34 36 37 37 37 37 38 39 37 38 42 41
35 34 34 33 33 35 34 34 33 33 33 34 34 34 34 35 35 34 34 35 35 35 35 34 34 34 35 35 36 35 34 35 37 38 37 37 37 38 39 37 39 42 42
34 33 33 33 33 32 32 32 32 33 33 33 34 34 34 35 34 34 34 34 34 34 34 34 34 34 34 34 35 36 36 37 38 38 39 37 36 38 39 39 41 42 43
34 33 33 32 31 31 31 31 31 32 33 33 33 34 35 35 34 34 34 34 33 33 33 33 33 34 34 34 35 36 36 36 38 38 39 38 36 37 39 41 43 43 42
33 33 32 32 31 31 31 30 31 32 32 33 33 34 34 34 34 33 33 33 33 33 33 33 33 33 34 35 36 36 36 37 38 38 39 39 37 38 40 43 43 43 43

GFSGL_sfc_temp_093.txt.gz
Temp
68 70 71 70 71 71 69 68 67 66 66 64 64 62 62 62 62 61 61 60 59 58 58 57 57 57 56 56 55 55 53 52 47 51 55 57 57 57 59 59 59 59 59
70 70 69 69 68 68 67 67 67 65 64 63 63 61 61 61 61 59 58 59 57 56 56 56 55 57 55 55 54 53 53 54 50 47 52 52 52 55 56 55 57 59 57
69 68 67 66 66 66 66 65 65 64 63 63 62 60 60 59 58 58 58 57 56 56 56 55 55 55 53 54 53 53 53 54 52 48 47 50 51 53 51 53 52 53 56
67 66 64 65 64 64 64 63 63 63 62 62 61 60 59 58 58 57 56 55 55 55 55 55 55 55 53 53 53 52 53 51 49 45 44 45 46 48 49 47 46 50 50
65 64 63 63 63 62 61 61 62 61 61 61 59 59 58 57 57 56 54 53 52 52 53 54 55 55 54 53 50 47 45 43 41 40 38 40 41 42 42 44 43 47 49
64 62 61 61 61 60 60 60 60 59 59 59 58 58 56 57 56 54 52 51 51 50 50 52 52 51 50 52 53 53 51 44 41 40 39 38 38 41 42 42 43 43 40
63 61 60 60 59 59 59 58 57 57 58 57 57 56 55 55 55 53 52 51 49 49 48 47 48 51 50 50 51 52 52 53 52 47 43 43 43 44 45 45 44 44 44
61 60 60 59 58 58 58 57 57 57 56 55 54 54 53 53 53 53 52 49 49 48 48 48 47 48 49 49 48 47 47 48 49 50 49 49 48 49 48 47 46 46 48
59 59 59 58 57 56 55 54 55 54 54 53 53 52 51 52 52 51 50 47 45 46 48 49 49 48 50 49 46 44 43 45 51 52 52 51 51 52 51 46 42 39 38
58 58 58 58 55 54 54 53 54 53 52 52 51 52 51 50 52 51 48 44 42 44 47 49 49 48 50 50 45 44 42 44 46 45 46 49 51 51 52 49 46 41 40
57 57 57 56 55 55 53 53 52 51 51 50 50 51 51 51 49 48 48 45 44 43 44 45 46 49 49 49 49 44 41 44 43 42 43 46 47 47 47 48 46 41 39
56 55 55 55 55 54 52 51 51 50 48 48 48 48 49 47 47 47 48 48 48 44 44 45 46 48 49 49 48 48 49 48 43 42 40 41 42 43 44 45 43 43 44
55 54 54 54 54 53 51 50 48 49 46 46 45 43 42 44 45 46 47 48 48 44 44 46 47 47 48 46 47 47 46 41 40 38 39 39 41 43 44 43 43 43 45
54 53 53 52 51 51 51 50 48 46 44 43 39 39 39 40 41 43 45 44 45 45 45 44 45 46 47 45 44 44 43 42 41 39 39 40 42 40 40 41 39 40 39
53 52 51 51 49 49 49 48 46 46 44 38 39 38 37 37 41 43 43 42 42 43 44 42 40 40 39 39 41 41 41 42 40 40 40 39 39 39 39 40 40 39 37
49 49 49 48 47 48 46 45 48 45 43 43 44 42 42 43 43 44 44 45 44 44 40 37 37 37 37 38 37 38 39 40 40 40 39 39 37 37 37 38 39 38 37
47 47 46 46 46 44 44 43 38 40 42 43 43 43 42 42 43 43 44 44 44 43 36 35 35 36 36 37 37 37 36 38 40 39 39 39 38 37 37 37 38 38 37
46 46 45 45 45 44 42 40 37 35 34 36 41 41 42 42 42 43 43 42 37 38 36 34 34 36 36 36 36 36 36 37 38 38 38 38 37 37 36 36 36 35 35
45 45 44 44 44 43 42 37 36 36 35 35 37 39 41 42 42 43 42 37 34 34 35 34 35 35 36 36 36 35 35 36 36 37 37 37 38 37 36 36 36 37 36
45 44 42 42 42 42 38 36 35 35 35 36 35 35 38 38 36 38 38 37 34 34 34 34 35 35 35 35 35 34 34 34 35 36 36 37 37 37 36 37 37 36 35
44 44 42 43 41 40 37 35 35 34 33 34 35 37 40 36 36 36 36 35 33 33 34 34 34 34 35 35 34 34 34 34 34 36 37 37 38 37 39 39 38 37 35
43 43 42 40 41 39 36 35 34 33 33 33 34 37 39 37 36 36 35 35 35 35 35 34 34 34 34 34 34 34 33 33 34 35 36 37 37 38 38 38 38 38 38
43 42 41 41 40 37 34 34 33 33 34 35 35 35 36 36 36 36 36 36 36 36 36 35 34 34 35 35 35 35 33 33 35 36 35 36 36 37 38 38 39 38 38
42 41 40 40 38 33 32 32 33 35 35 35 35 36 36 35 35 35 36 36 36 36 36 36 35 34 34 35 35 35 36 36 36 36 37 36 36 37 38 39 39 39 38
41 41 40 39 35 31 31 33 34 35 35 35 35 36 36 36 35 35 35 36 35 35 35 35 34 34 34 35 35 35 36 36 36 37 38 38 37 37 39 40 40 39 39
40 40 40 38 33 32 32 33 34 34 34 35 36 35 35 35 35 35 35 35 34 34 34 34 34 33 34 35 35 36 36 37 37 38 38 38 37 37 39 39 40 40 41

GFSGL_sfc_temp_096.txt.gz
Temp
63 60 63 63 63 62 57 56 55 55 55 55 55 54 53 52 52 49 49 49 48 47 47 46 46 46 44 44 44 43 42 41 40 45 43 45 45 45 47 48 50 48 48
63 62 62 61 58 56 55 55 56 54 55 54 54 53 52 52 50 49 48 48 47 46 46 46 46 52 45 44 43 42 42 42 42 41 45 43 42 44 45 45 50 55 49
62 59 56 55 55 54 54 54 55 54 53 53 52 51 51 51 50 49 48 47 46 46 46 45 45 45 43 43 43 42 42 47 42 42 43 42 41 42 43 43 45 50 53
57 55 53 53 53 52 53 53 53 53 51 51 51 51 51 50 50 49 48 46 45 46 46 46 46 45 44 43 44 42 45 41 40 38 37 38 39 42 40 42 41 42 45
55 53 52 53 53 53 52 52 52 51 51 50 50 50 50 50 52 47 46 44 43 43 45 46 47 50 54 53 49 43 41 41 41 40 39 40 40 41 40 43 42 44 45
53 52 53 53 52 51 50 50 49 49 48 49 48 48 47 52 56 56 52 43 47 44 41 44 43 48 47 52 53 53 50 44 42 40 40 39 40 40 42 42 42 40 36
53 53 53 52 51 50 50 49 47 46 46 46 45 46 45 45 55 55 54 49 42 40 40 41 43 48 48 45 48 51 51 51 51 45 41 41 40 42 42 41 41 41 39
52 52 52 51 50 49 48 46 45 45 44 44 44 44 43 46 54 54 54 43 41 43 46 44 41 42 44 45 44 43 42 43 44 46 43 43 43 43 42 43 43 43 44
51 50 51 50 48 47 45 44 44 43 42 42 44 43 41 42 52 53 51 44 44 44 45 43 42 42 47 50 45 43 40 42 49 50 52 52 52 51 50 45 42 40 38
49 50 50 49 47 45 44 43 43 42 43 44 43 43 47 42 50 51 48 45 41 40 41 43 47 46 50 50 45 42 39 40 42 42 43 46 47 46 51 47 42 38 37
50 50 49 48 46 45 43 42 41 41 42 40 42 41 41 42 40 49 49 44 42 41 40 40 41 48 49 50 50 44 43 43 44 42 42 42 42 44 45 46 44 40 38
49 49 47 46 48 48 42 41 41 40 39 41 38 38 39 39 46 47 48 48 47 42 40 41 42 47 48 49 48 48 49 48 41 39 38 38 38 39 41 42 42 41 40
47 45 45 45 45 44 41 39 39 39 37 36 36 35 36 40 42 46 46 47 47 43 43 45 47 47 47 46 46 48 47 39 38 36 35 36 38 40 40 39 41 42 42
45 44 44 42 43 41 42 41 38 36 35 36 37 36 36 38 39 40 41 40 42 42 43 41 42 45 45 44 43 42 40 39 37 36 35 36 37 36 37 39 38 39 37
43 43 42 41 40 39 40 38 38 37 38 38 37 37 36 35 38 42 42 40 40 42 43 39 37 37 37 37 37 38 38 37 37 36 37 36 36 38 38 39 39 38 35
41 41 40 38 38 37 36 36 45 45 44 44 44 42 41 43 43 44 44 44 44 44 39 34 34 35 34 34 34 35 35 37 36 35 36 37 36 36 36 38 38 36 35
39 39 38 40 37 35 35 34 30 38 42 42 43 43 43 42 43 43 44 44 44 42 34 33 32 32 33 33 34 34 33 35 35 35 36 36 37 37 37 36 36 36 36
42 45 35 34 34 34 34 32 35 34 33 35 40 41 42 43 43 43 43 42 35 36 33 32 32 33 33 33 34 34 34 33 34 35 36 36 36 36 35 35 35 35 34
40 37 35 34 34 37 33 31 34 34 33 34 35 38 39 41 42 42 42 35 33 33 33 33 34 34 34 34 34 34 34 33 34 34 34 35 36 36 35 35 35 36 36
37 43 41 34 33 33 32 35 34 33 32 32 32 33 35 35 33 34 36 35 33 33 33 33 33 34 34 34 34 34 33 34 33 34 34 35 36 36 35 35 35 34 35
35 35 42 33 33 33 34 33 33 32 31 31 32 36 40 36 33 33 34 34 34 33 33 33 33 33 34 34 33 33 33 33 33 34 34 35 36 35 37 36 36 37 36
34 33 34 33 34 34 34 33 32 31 32 31 32 34 38 34 33 33 33 34 34 34 34 34 34 34 34 34 34 33 33 33 34 34 34 35 36 36 36 36 36 36 37
34 33 33 33 34 34 32 32 31 32 32 32 32 33 34 34 33 33 34 34 34 34 35 35 34 34 35 35 35 34 33 33 34 35 34 34 35 36 36 36 36 36 37
33 33 33 32 31 32 31 31 32 33 34 33 32 33 32 33 33 33 34 34 34 34 35 35 35 34 35 35 35 35 35 35 36 35 36 35 35 36 36 36 36 37 37
33 32 32 29 29 31 31 29 29 31 33 33 33 34 33 33 33 33 34 34 33 34 34 34 34 34 34 34 34 35 35 36 36 36 36 36 36 36 36 36 36 37 37
33 32 31 29 31 31 30 28 29 32 32 34 34 33 33 33 33 33 33 34 34 34 34 34 34 33 34 34 35 35 36 36 37 38 37 37 36 36 36 36 37 37 38

GFSGL_sfc_temp_099.txt.gz
Temp
57 60 60 60 60 58 58 57 56 55 52 52 52 51 51 50 49 47 45 46 45 43 43 43 43 43 41 41 40 40 39 38 38 42 40 42 41 43 46 45 47 46 46
62 59 59 59 55 58 56 53 52 51 52 52 51 50 50 49 47 46 45 45 43 43 43 43 43 49 42 41 40 39 39 39 37 38 40 39 40 41 41 41 48 52 47
59 54 54 54 53 50 50 50 51 50 49 50 50 49 49 48 47 46 46 45 44 43 42 41 42 41 39 39 40 40 39 44 38 36 38 38 38 38 39 41 42 41 49
54 53 51 48 48 48 49 49 50 49 48 48 48 48 48 48 48 47 46 43 42 43 43 43 42 41 40 39 41 41 41 38 37 36 36 36 37 40 38 36 39 41 43
50 48 48 48 49 49 49 48 48 48 47 47 47 47 47 47 50 45 45 43 41 41 42 43 44 46 52 51 47 43 43 40 37 38 39 40 41 41 40 40 41 43 44
48 48 49 49 49 48 47 47 46 46 45 46 45 45 44 49 55 56 52 42 43 47 46 40 41 47 44 51 51 52 50 44 41 40 39 38 39 40 42 40 40 40 38
48 49 49 49 48 47 47 46 44 42 41 41 41 42 41 41 54 55 54 48 45 40 38 38 40 47 46 43 47 50 49 51 50 44 41 39 40 41 41 39 42 41 40
47 48 48 47 46 45 44 43 41 41 40 40 40 41 40 43 53 53 53 43 39 39 42 46 44 41 40 43 42 42 43 44 42 44 42 42 41 42 41 41 40 41 43
46 46 46 46 44 44 42 40 40 39 39 39 40 40 39 39 50 52 49 40 41 43 45 43 41 39 45 49 44 42 42 43 47 50 51 51 51 52 50 45 41 39 37
45 46 46 45 44 43 41 40 40 39 41 41 41 40 43 38 46 49 48 40 37 41 42 40 45 45 49 50 45 43 40 41 42 43 43 43 46 45 48 45 43 38 38
47 47 46 44 43 42 40 39 38 38 38 37 38 36 36 39 38 48 49 44 42 42 40 40 41 45 48 49 48 43 42 44 44 41 41 41 42 42 42 43 44 41 37
46 46 44 42 45 44 39 38 37 36 34 34 33 33 35 35 43 45 47 47 47 41 39 40 39 46 48 48 47 48 48 48 40 36 35 35 36 35 37 39 41 41 42
43 41 41 41 41 40 38 36 35 35 33 33 33 32 34 38 37 45 46 46 46 42 41 43 46 46 45 44 45 47 46 39 37 32 32 32 33 34 37 35 38 39 39
39 39 39 38 39 38 38 37 35 33 32 33 34 35 36 35 38 40 40 39 41 41 42 39 42 42 44 43 41 40 39 37 35 34 35 37 34 33 34 37 37 38 37
38 38 37 37 36 35 36 35 36 33 39 37 36 37 36 34 37 42 42 40 40 42 43 38 35 35 35 36 36 37 37 37 34 33 32 34 33 34 37 39 38 37 35
37 36 36 35 34 34 33 33 42 43 44 43 43 42 40 42 43 43 44 44 44 45 39 32 33 33 32 33 33 34 35 35 33 33 32 32 33 34 36 37 37 35 34
35 36 34 35 33 31 31 30 28 34 41 42 42 42 43 43 43 43 43 44 43 42 33 33 32 32 33 33 33 33 33 34 34 33 32 32 33 34 36 36 36 35 35
36 42 32 31 31 31 30 30 29 30 32 34 38 40 41 42 42 42 42 41 33 35 33 32 32 33 33 33 33 33 34 34 32 32 32 32 33 34 35 35 35 34 34
36 34 33 31 31 34 31 30 34 34 32 32 32 36 37 40 40 41 40 32 31 31 33 33 34 34 33 33 33 34 34 33 33 33 34 33 34 34 34 35 35 37 36
34 41 39 32 32 31 31 33 32 31 31 31 31 32 34 34 32 32 34 33 33 33 33 33 34 34 33 33 33 33 33 34 33 34 34 34 34 35 34 34 34 34 34
31 32 40 31 31 30 30 28 32 31 30 31 30 32 39 35 31 31 32 33 33 32 33 33 33 33 34 34 34 33 33 33 33 34 33 34 35 34 35 36 35 35 35
30 31 31 31 31 30 29 32 31 31 31 31 30 32 37 33 32 32 33 33 33 33 34 34 33 34 34 34 34 33 33 33 33 33 33 34 35 35 35 35 35 35 35
30 31 31 30 30 32 28 28 27 29 31 30 31 31 32 32 32 32 33 33 33 33 34 34 33 33 35 35 35 35 33 33 34 34 33 34 34 35 35 34 35 34 35
31 30 29 29 30 28 26 26 28 30 31 32 31 32 32 33 32 32 33 33 33 34 34 34 34 33 34 34 35 35 35 35 35 35 35 34 34 35 35 35 35 35 35
31 30 29 27 27 26 27 29 30 31 31 31 32 32 32 33 33 33 33 33 34 34 34 34 34 34 33 34 34 35 35 35 35 36 35 35 35 35 35 35 35 35 35
31 30 29 28 26 29 32 32 31 32 31 32 32 32 32 32 32 33 33 34 33 34 34 34 34 34 34 34 35 35 35 36 36 37 37 36 35 35 36 36 35 35 35

GFSGL_sfc_temp_102.txt.gz
Temp
60 61 60 59 59 58 57 56 52 54 52 53 51 49 49 47 46 45 44 44 43 42 41 41 41 40 40 39 38 37 37 35 34 38 38 40 38 41 44 43 45 43 44
60 59 58 58 54 56 54 51 55 51 50 50 49 48 48 47 45 45 45 44 43 42 41 41 41 46 39 38 37 37 37 37 35 37 36 37 37 39 40 39 45 50 45
58 56 53 53 53 50 52 51 48 48 47 48 48 47 47 46 45 44 44 44 42 41 41 40 40 39 38 37 37 37 37 42 37 33 35 36 36 37 38 39 40 40 46
53 51 48 48 50 47 47 47 47 46 46 45 46 46 47 46 46 45 44 42 41 41 42 41 41 40 38 38 39 38 39 36 36 38 39 37 35 37 38 37 37 38 40
49 47 45 46 46 46 46 45 46 46 45 45 45 45 44 45 48 44 44 42 40 40 41 42 43 44 51 50 46 39 37 36 36 35 37 39 40 40 39 41 41 43 44
47 46 47 47 46 45 45 44 44 43 42 42 42 42 41 47 53 55 52 41 42 41 40 44 42 46 43 50 51 51 49 44 41 40 39 38 38 39 41 41 40 39 36
46 46 47 46 45 44 44 43 41 40 39 39 39 40 39 40 52 54 54 45 41 40 40 38 39 45 46 40 45 48 48 49 50 44 41 40 39 39 38 38 38 39 40
44 45 45 44 43 42 41 40 39 38 38 38 38 39 38 41 51 52 53 39 38 38 38 38 39 42 39 41 40 39 39 42 44 46 43 41 40 41 39 42 42 41 42
43 43 43 43 42 41 40 39 39 38 37 38 38 38 36 36 48 51 48 38 38 37 39 40 41 37 44 48 44 42 42 43 48 50 50 51 51 51 49 43 40 39 37
43 43 43 43 42 40 39 38 38 37 38 39 38 35 42 34 43 47 47 39 35 36 37 39 45 44 47 49 44 42 37 41 42 41 43 44 45 45 48 44 40 37 38
44 44 43 42 41 40 38 37 36 36 35 34 35 33 34 36 35 46 47 41 39 41 38 37 41 46 47 48 49 43 41 41 44 41 38 37 38 39 40 42 42 40 36
43 42 41 39 42 41 36 35 35 33 32 31 31 32 34 34 42 44 46 47 46 41 39 40 37 45 47 48 47 47 48 47 40 38 37 35 33 33 34 35 37 39 41
39 37 37 38 38 37 35 34 33 32 31 31 31 30 32 35 34 43 45 46 46 41 41 42 46 47 46 42 43 46 46 38 36 33 32 31 31 33 33 33 35 36 36
36 36 36 36 36 34 35 35 32 31 31 32 34 35 33 33 33 35 37 38 41 41 41 38 41 41 42 42 40 39 38 37 35 34 34 33 33 31 31 34 33 34 36
35 35 34 35 33 32 33 33 34 32 35 34 32 35 35 34 35 42 42 40 40 41 43 39 32 32 33 34 35 35 36 36 34 35 33 31 31 31 33 35 37 36 34
35 34 34 32 31 31 30 30 39 41 42 43 43 41 40 42 43 43 44 43 44 44 39 30 29 30 30 32 33 34 34 35 35 34 33 31 31 31 32 34 37 35 34
33 33 32 33 31 29 29 29 27 32 40 41 41 41 41 42 42 42 42 42 42 41 30 29 29 30 32 33 33 33 33 34 35 34 33 32 31 32 33 33 36 35 34
33 41 30 30 30 29 30 29 29 29 28 30 36 38 40 41 41 41 42 41 31 33 30 29 31 33 33 32 33 33 34 34 34 34 33 33 32 32 32 32 34 34 34
33 32 31 30 30 33 30 29 29 28 28 28 30 34 36 38 40 40 40 31 28 30 32 32 32 33 33 33 33 33 34 33 34 33 33 33 33 32 32 33 34 37 36
31 39 38 30 30 30 29 28 27 27 28 28 28 29 31 33 31 32 32 31 32 32 32 32 33 33 33 33 33 33 33 33 33 33 32 33 34 34 33 33 34 33 33
30 31 37 30 29 29 28 27 27 27 27 28 29 32 38 34 31 30 30 32 31 31 32 32 33 33 33 33 33 33 33 33 33 33 33 33 34 33 34 35 34 34 34
29 30 30 29 30 29 28 27 27 27 27 27 29 31 36 32 31 31 31 32 32 33 33 33 33 33 33 33 33 33 33 33 33 34 33 34 34 34 34 34 34 34 34
30 29 29 29 30 31 27 27 26 26 28 31 31 32 33 32 32 32 32 32 33 33 34 34 33 33 34 34 34 34 33 33 34 35 34 33 33 34 34 34 34 34 34
30 29 29 28 29 28 27 32 28 30 32 31 30 31 31 31 32 32 32 33 33 34 35 34 34 34 34 34 34 35 35 35 36 35 35 34 34 34 34 34 34 35 34
30 29 28 27 26 25 28 31 32 32 31 31 31 32 32 32 32 33 33 34 34 34 34 34 34 34 35 34 34 35 35 35 35 36 36 35 34 34 35 34 35 35 35
30 29 29 28 26 26 27 31 31 30 30 32 32 32 32 32 32 33 33 34 33 34 34 35 35 36 36 36 36 36 36 36 36 37 36 35 34 35 35 35 35 35 35

GFSGL_sfc_temp_108.txt.gz
Temp
54 54 53 55 56 56 55 54 53 52 51 50 50 48 47 48 47 44 43 42 42 40 40 40 40 38 37 36 35 34 34 33 30 34 35 38 37 39 42 41 43 41 42
56 56 55 54 52 51 50 50 51 51 50 48 47 47 46 45 43 43 43 42 41 40 40 39 39 43 37 36 35 35 34 34 32 31 34 35 35 38 38 37 43 47 43
55 54 52 50 51 47 46 46 46 45 45 45 46 45 44 44 43 42 42 41 40 40 39 38 39 37 35 35 35 34 34 39 33 31 33 34 34 35 35 37 38 39 43
50 48 47 46 45 44 44 44 44 44 43 43 43 44 44 43 43 42 42 40 39 39 40 39 38 38 37 36 36 36 36 34 33 31 31 32 33 36 35 35 36 37 38
46 45 42 43 43 43 43 42 42 42 42 42 42 42 41 42 45 41 40 39 38 38 39 39 39 41 48 45 43 39 35 33 34 34 36 37 40 41 39 39 39 40 41
44 42 43 43 42 41 41 40 40 40 39 39 39 39 39 45 51 53 49 40 40 39 38 39 38 45 45 51 52 52 49 41 39 39 39 38 39 39 41 41 40 38 37
42 42 42 42 41 40 40 40 38 37 37 37 37 37 37 37 50 52 52 42 39 37 36 36 37 42 44 38 43 48 48 49 49 43 39 40 39 42 42 41 41 40 39
41 41 41 41 40 39 39 38 37 36 36 35 36 36 35 38 48 50 51 38 36 35 36 36 35 35 36 39 37 37 38 38 40 41 40 41 40 44 41 41 40 39 40
40 39 40 40 39 38 37 36 35 35 34 34 35 34 33 34 45 48 46 37 36 35 36 36 35 35 42 48 43 39 40 41 47 50 51 51 51 51 50 42 38 37 37
39 39 39 39 38 37 36 35 34 33 35 35 34 32 38 32 41 45 45 37 33 34 35 36 45 44 47 48 43 41 39 38 38 38 42 42 46 44 49 43 41 37 37
40 39 38 37 36 35 34 33 32 32 32 30 31 31 31 33 33 44 46 40 39 39 40 39 36 45 47 48 48 42 40 41 43 42 40 40 41 40 40 41 39 36 36
37 37 35 34 38 37 32 31 31 30 29 29 29 30 32 32 39 42 45 46 45 41 39 40 40 45 46 47 46 45 47 46 38 36 34 35 37 37 38 38 38 36 37
35 33 33 34 33 32 31 30 30 30 29 29 30 29 31 32 32 42 44 44 45 41 41 43 46 46 46 43 43 44 45 33 32 30 32 33 35 36 37 36 37 35 35
33 32 32 32 32 30 31 30 29 29 28 31 31 31 30 33 37 33 35 34 40 40 41 37 40 43 42 41 39 37 34 32 32 34 34 35 36 35 34 35 33 33 32
31 31 30 30 29 28 29 29 31 30 32 33 31 32 32 32 37 42 41 39 39 41 42 37 35 34 31 32 33 32 32 34 34 35 34 34 34 34 33 35 33 32 31
31 30 31 29 28 28 28 28 38 40 40 40 40 39 37 41 43 43 43 43 43 43 36 30 29 30 30 30 31 32 34 35 34 34 33 34 33 33 33 33 33 31 31
30 30 30 31 29 28 28 27 26 31 37 38 39 40 40 41 41 41 42 42 41 39 30 29 29 29 29 31 32 32 32 33 34 32 32 33 33 34 33 33 33 33 32
30 39 29 29 28 28 28 27 26 26 25 27 34 36 38 39 40 41 41 39 30 32 30 29 29 30 31 31 31 32 32 33 33 33 32 32 33 33 32 32 32 32 32
31 29 29 28 29 30 28 27 27 26 26 27 28 32 34 37 39 40 39 31 29 30 30 30 31 31 31 32 32 33 33 33 33 32 32 32 33 33 32 32 32 34 34
31 38 33 29 28 28 27 26 26 25 25 26 30 31 33 34 31 31 32 31 31 31 32 31 32 32 32 32 32 32 32 32 32 32 33 33 33 33 32 31 31 31 32
29 30 35 29 28 28 27 26 25 25 25 27 31 34 38 32 30 31 31 31 31 31 32 32 32 33 33 33 33 33 32 33 33 33 33 33 34 32 33 32 32 32 33
29 29 29 29 29 29 28 27 26 26 27 29 31 33 36 32 32 31 31 32 33 34 34 34 34 34 34 34 33 33 33 32 33 34 34 34 34 34 33 32 31 33 33
29 29 29 28 30 31 27 27 27 27 31 32 33 33 33 32 32 32 32 33 34 34 35 35 35 34 36 36 36 34 33 33 34 35 34 34 34 34 33 32 33 33 33
29 29 29 28 29 27 25 26 32 33 33 32 32 32 31 31 32 32 33 34 34 35 35 35 35 35 35 36 36 36 35 35 36 35 35 34 34 34 34 33 33 34 34
29 28 28 27 26 23 25 31 32 33 32 32 31 31 31 31 32 32 34 34 34 34 35 35 36 36 37 37 37 37 37 37 36 36 35 34 34 34 33 33 33 33 34
29 29 28 28 26 25 25 32 31 32 31 32 31 31 31 31 32 33 34 34 34 34 35 35 36 36 38 39 39 39 39 39 38 37 36 34 33 33 33 33 33 33 33

GFSGL_sfc_temp_111.txt.gz
Temp
55 56 55 54 54 54 54 55 56 55 55 53 53 53 54 54 55 56 55 54 54 53 52 52 52 52 53 52 51 51 50 48 46 51 50 53 53 53 54 56 55 55 55
55 56 55 54 54 53 53 54 55 53 53 54 55 54 54 54 54 55 54 54 54 52 52 52 52 52 51 51 50 50 50 50 47 45 50 49 50 52 52 51 52 55 55
55 53 53 53 52 52 52 53 54 55 55 55 54 54 53 52 53 53 54 53 53 53 53 52 52 51 51 51 50 50 49 49 48 45 46 49 48 50 49 51 50 52 53
53 51 50 51 51 51 52 52 52 53 53 53 52 52 52 52 52 52 52 52 52 52 51 51 52 51 51 51 50 50 50 48 48 45 44 45 47 49 48 47 46 51 50
52 51 49 50 51 51 51 51 51 51 51 51 52 51 51 52 53 52 52 51 51 51 51 51 50 50 50 51 49 49 44 41 43 44 44 45 45 44 45 46 43 46 50
51 49 49 50 50 49 49 50 50 49 49 50 50 49 49 51 51 53 54 51 51 50 49 51 50 49 50 51 53 53 51 48 46 45 44 41 41 44 47 44 43 43 40
51 50 50 50 49 49 49 49 48 47 49 48 48 48 48 48 49 52 52 50 48 48 47 47 47 49 48 49 49 49 50 50 50 48 43 44 44 47 48 47 47 46 43
49 49 49 49 47 47 48 47 47 48 47 47 47 46 46 47 48 50 50 48 47 47 47 46 46 46 47 46 46 46 47 48 48 48 48 48 50 51 49 48 47 44 42
48 48 48 48 47 47 46 46 46 47 46 46 45 44 44 45 45 47 48 47 46 45 46 46 46 45 46 47 44 42 43 44 50 50 50 50 51 51 49 45 39 39 37
47 46 47 47 46 45 45 44 44 44 44 44 43 43 41 43 43 45 46 46 44 44 46 46 46 46 48 48 44 42 40 44 46 47 48 48 48 48 49 49 47 42 41
46 45 44 44 44 44 43 43 42 42 42 41 41 42 42 42 43 44 46 45 43 42 42 42 44 46 47 48 48 45 44 45 43 40 43 45 44 46 48 48 48 44 41
44 43 42 43 44 43 42 41 41 40 40 40 39 40 42 42 42 43 45 46 46 43 41 42 43 45 46 47 46 47 48 47 40 42 42 41 42 43 45 45 45 44 44
42 41 41 41 41 41 41 40 40 39 39 38 38 38 39 41 41 42 44 44 45 43 44 44 46 46 45 45 42 44 46 42 42 39 39 40 41 43 42 41 42 42 42
41 40 40 41 40 39 40 40 39 38 38 38 37 37 37 38 40 41 42 41 42 43 43 43 41 42 43 42 41 41 41 40 39 38 37 39 39 38 36 36 36 39 37
40 39 39 39 38 38 38 38 39 40 39 38 37 38 36 37 40 43 42 42 42 43 42 38 38 38 38 38 38 38 38 38 37 39 36 36 36 36 37 37 36 37 34
39 39 39 38 37 37 37 37 39 39 40 40 40 40 41 41 42 43 43 43 43 43 39 36 35 36 35 35 35 36 37 37 36 36 36 36 35 36 36 38 37 35 34
38 38 39 37 37 36 36 35 33 36 37 38 38 39 40 41 42 42 43 42 41 40 35 35 34 34 34 34 34 34 33 35 38 36 36 37 37 36 36 35 35 35 34
39 38 37 37 36 36 35 34 34 33 32 33 36 37 39 40 41 42 41 39 36 36 34 32 31 33 33 34 34 34 35 36 35 35 35 36 36 36 34 34 34 34 33
37 37 36 36 36 36 35 34 34 33 32 32 35 37 39 40 40 39 38 35 33 33 34 34 34 34 34 34 34 34 34 34 35 35 35 35 36 35 34 34 34 34 34
38 38 36 36 35 35 34 33 33 33 33 32 32 32 34 36 35 35 36 35 33 33 33 33 34 34 34 34 34 34 33 34 34 34 35 35 35 35 34 34 34 33 34
37 37 36 35 35 35 34 33 33 33 32 32 33 35 38 34 33 34 34 33 33 33 33 34 34 34 34 34 34 34 34 33 34 34 34 34 35 34 34 34 34 35 35
36 35 35 35 35 35 34 34 33 32 32 33 34 35 37 35 34 34 34 34 34 35 35 35 35 35 35 35 35 35 34 33 34 34 34 35 35 35 35 34 35 35 35
35 35 34 34 35 34 33 33 34 33 34 34 34 34 35 34 34 34 34 34 35 35 36 36 35 35 36 37 37 36 34 34 34 35 34 34 34 34 34 34 35 35 35
35 34 34 34 34 33 32 33 34 35 34 34 35 34 34 33 33 33 33 34 35 35 36 36 36 36 36 37 39 38 37 36 36 36 36 35 34 35 35 35 35 36 35
34 34 34 33 32 31 32 34 33 33 33 34 34 34 34 34 34 34 34 35 35 35 35 36 36 37 37 38 39 40 40 39 38 37 36 35 35 34 34 34 35 35 36
34 34 34 33 32 32 32 33 32 33 32 33 34 34 33 33 33 34 34 34 34 35 35 36 37 37 39 40 41 40 40 40 40 40 39 36 34 34 34 34 34 34 34

GFSGL_sfc_temp_114.txt.gz
Temp
57 57 56 55 53 53 53 54 53 53 53 52 50 49 50 54 56 57 61 61 60 59 59 60 60 60 61 60 60 59 58 57 52 57 60 61 59 58 59 60 60 60 60
57 55 54 55 55 54 54 55 57 56 57 57 56 58 58 59 61 62 61 60 59 59 59 58 58 59 57 59 58 57 57 58 53 50 56 56 56 57 57 56 57 59 59
59 57 57 56 56 56 57 58 60 61 60 60 61 60 60 60 60 62 62 61 61 60 58 57 58 59 58 59 57 56 57 56 55 52 51 55 55 56 55 56 56 57 59
59 59 58 57 58 59 58 59 60 62 61 61 60 60 59 60 59 60 60 60 59 59 60 59 59 58 57 57 57 56 56 54 54 51 45 47 51 55 55 50 49 52 51
58 58 58 59 59 59 58 59 59 60 60 60 59 59 58 58 59 58 58 57 58 58 58 58 57 57 55 55 55 55 54 49 46 43 43 45 49 50 46 50 48 51 50
60 59 59 59 58 58 59 59 58 58 58 58 57 57 56 57 52 53 54 57 57 56 55 56 57 55 54 53 53 54 52 45 44 44 44 44 47 46 48 48 46 46 42
60 60 60 59 57 57 58 57 56 56 57 56 56 55 55 55 50 51 52 55 53 54 53 53 53 54 53 53 53 52 52 52 52 51 48 49 46 48 48 47 46 45 45
59 58 59 58 56 57 56 55 56 56 55 54 55 54 53 53 48 49 50 53 53 53 52 52 51 51 52 51 51 50 51 52 50 50 48 49 51 53 51 51 50 49 49
57 57 57 57 55 55 54 54 54 55 54 53 53 51 51 52 47 47 48 51 51 50 52 51 51 50 50 50 46 46 46 47 51 52 52 52 52 51 50 45 42 39 37
56 55 56 56 54 53 53 52 53 53 52 52 51 52 48 49 48 47 47 49 48 49 50 49 48 48 48 48 46 44 43 46 48 49 49 48 48 48 50 49 47 39 40
55 54 54 54 53 52 52 52 51 50 50 50 49 50 49 49 48 46 46 46 44 44 44 44 46 47 47 48 48 46 46 48 45 42 42 45 48 49 49 50 49 47 43
53 52 52 52 51 51 50 50 50 49 48 48 47 47 49 49 46 45 45 46 46 43 43 44 46 47 47 48 48 48 48 47 42 42 43 45 46 47 50 51 48 47 47
52 51 50 50 51 50 50 49 49 47 46 45 45 45 45 47 47 45 45 45 46 44 45 46 46 46 45 44 46 47 46 45 44 43 43 44 46 47 47 44 45 45 44
51 50 50 49 49 50 49 49 47 46 45 44 44 42 43 44 45 45 44 43 45 45 45 41 41 43 44 45 45 45 44 43 42 40 40 41 42 40 40 41 39 38 38
50 49 48 48 48 48 47 47 45 47 43 42 42 43 41 40 42 43 43 42 43 43 43 43 42 43 42 42 41 41 40 40 38 39 39 38 38 38 38 39 38 38 36
49 48 48 47 47 47 47 47 41 40 40 40 40 41 41 42 43 43 44 44 44 43 41 39 39 38 37 37 36 37 38 38 38 37 38 38 38 38 38 40 39 38 36
48 47 46 45 46 46 45 44 42 45 41 39 39 40 40 41 42 43 43 42 42 41 37 35 34 35 35 36 36 36 35 37 38 37 37 37 37 38 37 37 37 36 36
48 43 47 45 45 45 44 44 43 40 40 41 41 40 41 41 42 41 40 41 38 39 37 36 36 37 37 36 36 36 37 37 37 36 36 36 36 36 36 36 37 35 36
46 46 45 45 44 42 43 43 42 41 40 40 39 39 40 40 41 41 40 37 34 35 37 36 36 35 35 35 35 35 35 35 35 35 36 36 36 36 35 36 36 36 36
45 42 43 44 43 42 42 42 41 40 40 36 35 36 37 38 37 37 37 37 35 35 35 35 35 35 35 35 35 35 35 35 34 34 35 35 36 37 36 36 36 35 36
46 43 41 43 43 42 42 41 41 39 38 37 37 38 39 36 35 35 36 37 36 35 35 35 35 35 35 35 35 35 35 35 35 35 35 35 36 36 37 37 37 36 36
45 43 42 41 41 41 41 41 40 37 39 38 37 38 38 38 36 36 37 37 36 36 36 36 35 36 36 35 36 35 35 34 36 35 35 35 36 36 35 35 35 35 36
44 42 42 41 41 38 40 40 40 40 39 38 37 36 36 35 35 36 36 36 35 35 36 36 36 36 37 38 38 38 37 36 36 36 35 35 35 36 35 35 35 35 36
43 42 42 41 40 40 40 40 40 38 36 37 36 36 35 35 35 36 36 36 35 36 36 36 37 37 38 38 40 40 40 40 40 37 36 35 35 35 36 36 36 37 37
42 42 42 41 39 39 39 39 38 36 35 36 36 36 35 35 35 36 36 35 35 35 36 36 37 38 38 40 42 43 42 39 40 40 40 37 35 35 35 35 35 36 36
42 42 41 41 39 39 38 38 35 34 34 35 37 35 35 34 34 35 36 35 34 35 35 36 37 38 40 41 42 40 39 40 40 40 40 40 38 36 35 35 35 35 35

GFSGL_sfc_temp_117.txt.gz
Temp
55 56 55 53 53 53 51 52 54 54 54 53 52 51 50 51 51 52 53 55 56 57 58 60 60 61 59 60 59 57 56 56 51 55 59 61 60 59 60 59 59 58 58
55 56 56 56 52 52 55 54 54 54 53 52 51 50 50 50 52 56 58 61 61 60 60 59 58 60 57 57 57 56 56 57 53 50 55 55 55 57 57 56 56 59 57
56 55 56 56 58 58 58 59 59 60 60 61 61 60 61 61 62 62 62 62 62 61 60 57 57 56 56 56 57 57 55 56 55 52 51 55 54 55 53 55 55 56 57
59 58 58 59 58 60 61 62 62 63 62 61 61 61 61 61 61 60 60 60 60 60 60 59 59 58 57 57 57 56 56 54 54 52 51 50 50 51 51 50 49 51 50
60 59 59 60 61 61 60 61 61 61 61 61 60 60 60 59 57 56 58 58 58 58 59 59 59 58 57 56 54 52 52 51 50 47 45 44 45 46 47 49 47 47 50
61 59 60 59 60 59 60 59 59 59 59 59 58 58 57 58 52 53 53 54 56 56 55 56 56 56 56 56 55 55 53 49 47 45 44 43 45 47 48 48 46 43 41
61 61 60 60 59 59 59 58 57 57 58 57 57 57 56 55 51 51 51 53 53 54 53 53 53 55 54 53 54 54 54 54 53 50 46 47 47 50 49 47 46 45 44
61 61 61 59 58 58 58 57 57 57 56 55 55 54 54 52 49 49 49 51 52 53 53 52 51 51 52 51 50 49 50 51 51 52 50 49 49 51 49 49 48 47 47
60 59 59 59 57 57 55 55 55 55 55 54 54 53 52 52 50 49 48 49 50 50 52 52 51 49 50 51 46 44 45 46 51 52 52 52 53 53 51 45 42 40 38
59 58 58 58 56 54 54 53 53 54 52 53 52 53 52 51 51 49 48 48 47 48 48 49 48 48 49 49 45 43 42 45 47 48 48 49 50 50 50 48 46 41 41
58 57 57 56 55 54 53 53 52 52 51 51 51 51 51 51 50 48 47 46 46 45 45 45 46 48 48 48 48 45 44 47 45 41 40 41 43 46 48 49 49 45 40
57 55 55 55 53 54 52 51 51 50 49 49 49 49 50 51 49 48 46 46 47 43 43 45 46 47 48 48 47 48 49 48 45 44 42 42 43 45 47 48 49 48 47
55 53 53 53 53 52 51 50 50 49 47 47 46 46 46 48 48 48 47 46 46 44 45 46 47 46 46 45 45 47 47 44 42 41 41 42 43 44 45 44 45 45 44
54 53 52 52 51 51 51 50 48 48 46 45 44 43 44 45 45 45 44 43 45 45 45 43 45 45 47 45 45 44 43 42 40 38 38 40 41 39 38 39 37 38 37
54 52 51 51 50 50 49 48 47 48 43 41 42 42 41 40 41 43 43 43 42 43 43 42 41 41 40 40 40 40 40 40 38 39 38 38 38 39 38 40 37 36 35
52 51 51 50 49 48 48 47 43 42 41 40 40 41 41 42 43 44 44 44 43 43 40 38 37 36 36 35 35 36 37 38 37 37 37 37 36 37 37 39 39 37 35
52 51 48 48 48 46 46 45 44 43 42 41 40 40 41 42 43 43 43 42 43 42 36 36 35 36 36 36 36 36 35 37 38 37 37 36 37 37 37 36 37 37 36
52 48 49 48 47 46 45 45 44 42 41 42 42 41 41 41 42 42 41 41 37 38 36 36 36 36 36 36 35 35 35 35 35 35 36 36 36 36 35 35 35 35 35
48 47 48 47 46 44 44 43 43 42 41 41 40 41 41 41 42 42 41 37 35 35 36 36 36 36 35 35 35 35 35 35 36 35 35 35 36 36 35 35 35 37 36
48 47 46 46 43 43 43 42 42 42 41 40 38 38 38 38 37 37 37 37 36 36 35 35 36 36 35 35 35 35 35 35 35 35 35 35 35 35 35 35 36 35 35
45 43 44 45 44 43 42 41 41 41 39 40 39 39 39 36 36 35 36 36 36 35 35 35 35 35 36 36 35 35 35 35 35 35 35 35 35 35 36 36 35 35 36
46 43 42 43 43 41 42 41 40 39 40 40 39 38 39 37 36 35 35 36 36 36 36 35 35 36 36 36 36 35 36 36 37 36 36 35 35 35 35 35 35 35 35
46 44 43 43 42 40 39 40 40 40 40 40 39 36 36 35 35 35 36 37 36 36 36 36 36 36 37 38 39 39 37 37 38 38 37 35 35 35 35 34 35 34 34
45 44 43 43 41 41 40 40 40 38 37 39 38 37 35 35 34 35 36 37 36 36 36 36 36 36 37 39 40 41 41 41 40 39 39 38 37 36 35 35 34 35 35
44 44 44 42 40 40 39 39 39 38 37 37 38 36 35 35 34 34 36 37 36 36 35 36 36 37 38 39 40 41 41 39 39 39 39 39 38 38 37 35 35 35 35
44 44 44 43 41 40 39 38 37 36 35 37 37 36 35 34 34 35 35 36 35 36 35 35 36 37 38 39 40 40 38 38 39 39 39 38 37 37 38 37 36 35 35

GFSGL_sfc_temp_123.txt.gz
Temp
53 53 53 53 53 54 53 53 53 53 54 53 53 52 52 52 53 53 53 54 54 53 54 54 53 54 51 52 51 50 47 47 43 44 45 46 45 44 45 45 47 46 46
54 54 54 54 54 53 51 53 53 52 53 53 53 52 52 52 52 52 52 54 54 53 54 53 53 55 51 51 46 45 43 43 40 37 39 41 42 43 42 42 48 52 46
56 56 55 53 50 51 51 51 52 53 53 53 53 53 53 53 53 54 54 53 52 52 51 51 48 47 44 43 42 40 40 45 39 37 37 38 39 39 40 41 43 46 49
56 54 52 49 49 52 54 53 52 52 50 49 49 49 48 48 48 48 48 46 46 47 48 48 47 45 43 42 43 41 42 39 38 37 37 37 38 40 39 39 41 39 41
50 49 48 49 49 50 49 50 50 50 48 49 48 47 47 49 51 44 44 43 43 43 45 46 46 52 55 52 47 42 41 39 37 36 35 36 36 36 36 38 37 38 39
48 47 48 48 47 46 47 47 47 46 46 46 44 44 44 50 53 52 45 41 42 42 41 42 44 48 49 53 53 54 50 41 41 40 40 38 35 36 36 36 37 36 34
47 47 47 47 46 46 45 45 43 41 42 41 42 41 41 43 52 51 50 41 39 39 39 40 43 46 43 42 47 49 47 50 50 42 36 37 36 37 37 35 35 34 37
46 46 47 46 45 44 43 42 41 40 40 40 40 39 40 46 51 50 48 38 38 38 39 39 38 38 41 44 41 39 39 40 42 44 39 40 40 41 42 44 43 42 41
46 45 45 45 44 43 41 40 39 39 39 39 39 38 38 39 50 49 43 38 38 37 40 39 39 38 47 50 41 40 38 38 47 50 50 51 51 50 48 42 39 39 38
45 45 45 44 43 41 40 40 39 39 40 41 40 38 46 38 50 49 42 38 35 37 37 38 45 44 49 50 44 42 40 40 40 42 42 43 44 41 47 41 39 37 37
46 45 44 43 42 41 39 38 37 37 37 36 37 36 37 39 40 48 48 38 40 40 36 36 37 46 48 48 49 42 41 44 41 40 39 36 36 37 38 40 41 39 36
45 44 42 41 46 43 38 37 37 36 34 34 34 34 36 37 47 47 47 47 46 38 36 37 40 47 48 47 45 47 47 42 37 35 34 36 36 38 35 36 38 40 41
43 41 40 41 40 39 37 35 35 35 34 34 33 32 33 35 36 45 45 46 45 41 38 44 45 45 45 41 44 44 43 35 36 36 32 35 38 39 40 38 36 37 36
41 39 39 38 38 37 39 37 34 33 32 33 32 30 31 33 33 35 37 37 43 39 41 36 41 41 42 40 38 38 38 38 38 34 33 33 34 33 33 33 32 33 33
42 40 38 39 36 35 36 35 34 32 34 31 30 31 30 30 35 43 43 41 38 40 39 38 34 34 35 35 36 37 37 36 36 36 35 35 35 33 32 33 32 32 33
42 40 38 36 35 35 34 33 44 42 43 43 42 37 36 41 44 44 44 43 43 43 37 34 34 34 33 34 35 35 36 37 36 36 35 35 34 34 35 35 32 31 32
44 40 40 38 35 33 32 31 30 36 43 42 42 43 42 42 43 43 43 42 42 41 34 33 33 32 32 35 35 35 35 36 37 36 35 35 34 35 35 34 34 34 33
44 46 38 35 35 33 33 32 31 30 29 30 40 40 42 42 42 42 41 40 35 36 34 33 32 33 35 35 35 35 35 36 36 36 36 36 35 34 33 33 33 32 33
43 40 37 34 34 35 33 32 32 31 30 30 30 36 39 42 41 41 41 35 32 32 33 34 35 35 35 35 36 36 36 36 36 36 35 35 36 35 34 34 33 35 35
42 43 40 35 35 33 32 32 31 31 30 29 29 30 31 36 35 35 36 35 33 33 34 34 35 35 35 36 36 36 36 36 36 36 36 36 36 36 34 34 34 33 33
41 41 41 35 33 33 32 31 31 30 30 29 29 33 40 35 33 33 33 33 29 34 34 34 35 35 35 36 36 36 36 36 36 36 36 37 36 35 37 35 35 35 34
40 39 36 35 34 33 32 32 31 30 30 29 29 33 39 35 34 33 33 34 34 35 35 35 34 34 35 35 35 35 35 35 36 37 37 37 36 37 36 35 35 35 34
39 37 36 34 34 37 33 31 30 30 30 29 29 30 32 33 33 33 33 34 34 35 35 35 35 35 36 36 37 37 35 36 37 38 36 35 36 36 36 35 35 35 34
37 36 35 34 33 31 30 30 31 33 30 30 30 30 29 32 33 33 33 34 34 34 31 30 32 34 35 36 37 37 38 38 38 37 37 36 35 36 36 35 35 36 36
36 36 35 33 34 30 31 31 30 29 30 31 31 31 30 34 33 33 33 33 33 33 30 33 34 35 35 36 36 37 38 38 38 38 38 37 36 36 36 35 36 36 36
35 35 33 32 30 29 29 29 28 28 28 30 30 30 29 32 33 33 33 33 32 30 30 34 34 35 36 37 37 37 38 38 39 39 38 37 36 35 35 35 35 36 36

GFSGL_sfc_temp_126.txt.gz
Temp
53 54 54 54 54 54 54 53 53 54 54 54 53 53 52 52 53 53 53 53 53 53 53 53 53 53 51 51 50 50 48 46 43 45 43 43 43 42 44 43 46 45 46
53 53 53 54 53 53 52 53 53 53 53 53 53 52 52 52 52 52 53 54 53 53 53 52 52 55 50 49 47 45 43 40 39 36 36 39 40 40 40 39 45 50 44
52 53 53 52 52 51 51 51 54 54 53 54 54 53 52 52 52 53 53 52 52 52 51 48 47 46 43 42 41 41 40 43 37 36 37 37 38 38 39 40 41 42 47
53 53 49 49 49 49 49 49 48 48 49 50 50 49 48 46 46 45 44 43 44 44 45 45 45 44 43 41 41 40 41 38 37 36 35 36 36 38 37 37 37 38 39
48 47 46 47 48 48 47 47 47 48 45 46 45 45 45 47 47 42 42 41 41 41 42 44 46 49 54 48 44 40 39 37 36 35 34 34 35 35 35 36 35 36 37
47 45 46 47 47 45 45 45 44 43 43 44 42 43 43 49 52 50 43 40 41 41 40 41 43 46 48 53 53 53 47 38 35 35 34 34 34 34 34 35 34 33 32
44 45 45 45 44 43 43 43 41 40 40 39 40 41 40 43 52 51 47 39 38 38 37 38 42 45 43 41 47 48 46 50 49 39 34 34 33 35 35 34 35 37 36
44 44 45 44 43 42 42 40 39 38 38 38 38 39 40 45 51 49 47 37 36 36 37 37 36 37 39 43 40 38 39 38 39 42 38 37 37 39 41 42 40 38 38
43 43 43 43 41 41 39 38 37 38 37 37 37 37 37 38 50 48 41 35 36 35 38 37 37 37 46 50 40 41 41 42 48 49 48 48 48 49 47 39 35 34 34
43 43 43 42 41 39 38 37 37 36 38 38 37 36 43 36 49 47 41 36 34 36 36 37 44 43 49 49 44 42 39 36 40 42 42 42 42 39 46 38 37 36 34
44 43 42 41 40 39 37 36 35 35 36 34 35 34 35 38 39 48 47 41 41 40 35 35 36 45 47 48 47 40 42 40 38 34 34 33 34 35 36 36 36 35 35
44 43 40 39 43 41 36 34 35 34 32 32 32 32 34 35 45 48 47 47 45 39 35 37 41 46 47 46 43 46 45 41 33 32 31 32 32 33 35 38 38 35 36
43 40 39 39 38 37 35 33 33 33 32 31 32 31 31 34 34 45 45 46 45 41 39 43 45 44 43 40 44 44 42 33 32 30 29 29 31 33 33 34 34 34 34
41 38 37 37 35 35 36 35 33 32 31 31 31 30 30 31 32 34 36 39 43 38 41 38 40 41 42 40 37 38 39 35 37 35 34 36 37 36 35 32 30 31 30
41 39 38 38 35 34 34 34 34 32 33 31 30 30 30 29 33 42 42 40 39 41 39 37 34 34 31 34 36 37 37 37 37 36 35 35 35 35 36 37 35 32 31
41 39 38 37 34 33 33 32 43 42 44 42 41 35 34 41 43 44 43 43 43 43 37 36 35 34 35 34 31 35 37 37 37 37 36 35 35 34 34 33 35 34 32
43 40 40 38 36 32 33 33 30 38 44 43 43 43 43 42 43 43 42 42 42 40 34 33 33 33 34 34 35 35 35 36 37 37 36 36 36 35 35 34 34 33 32
43 45 39 37 35 34 33 32 32 32 29 30 40 40 42 42 42 42 41 40 35 36 34 33 33 34 34 34 35 34 35 35 35 36 36 36 36 35 35 34 34 33 32
42 40 38 37 35 35 33 32 32 31 30 30 30 37 39 42 41 41 40 34 32 32 33 34 35 35 35 35 35 36 36 35 36 36 36 36 35 35 34 35 34 36 36
42 43 40 36 36 33 32 32 31 31 30 29 29 30 31 33 34 34 35 34 31 33 34 34 34 35 35 35 35 36 35 36 36 36 35 36 36 36 35 34 35 34 34
40 41 41 35 35 35 33 33 31 30 30 29 29 32 37 30 31 33 33 33 32 30 34 34 34 34 35 35 35 35 34 35 35 35 36 36 36 35 35 36 35 35 35
40 39 38 37 35 34 33 33 31 30 30 29 29 32 40 29 29 33 33 33 34 34 35 34 34 34 34 34 34 34 34 34 35 36 36 36 35 35 36 35 35 35 35
39 38 37 36 35 37 35 32 30 31 30 30 29 30 31 29 29 31 33 33 34 34 35 34 34 34 35 36 36 36 34 34 35 36 35 35 35 35 35 35 35 35 34
39 38 37 36 35 33 32 30 31 33 31 30 30 30 28 28 27 33 33 33 33 34 34 31 31 33 33 34 36 37 37 37 37 37 36 35 35 35 35 35 34 35 34
38 37 36 35 35 32 32 31 30 30 31 31 30 29 28 29 29 33 33 32 32 33 31 31 33 33 34 35 35 36 37 38 38 38 37 37 35 35 35 34 34 34 35
37 36 36 35 33 31 30 30 28 28 28 30 29 28 27 27 28 32 33 33 31 30 30 32 33 34 35 36 36 38 39 39 38 39 37 36 34 34 34 33 34 34 34

GFSGL_sfc_temp_132.txt.gz
Temp
54 54 54 54 54 54 54 53 53 53 53 53 53 53 53 53 54 54 54 54 54 53 53 53 52 52 50 50 49 49 47 48 45 45 43 41 41 42 43 43 45 44 44
53 53 53 53 53 52 52 52 54 52 53 53 53 53 53 53 53 53 53 54 53 51 52 52 51 53 49 49 47 46 45 43 43 38 36 38 38 39 39 40 44 48 44
53 52 52 51 51 51 51 52 53 53 53 53 53 52 51 52 52 52 52 51 51 51 50 50 49 48 46 46 44 42 39 41 36 36 35 36 37 37 39 39 40 40 45
50 49 47 49 50 51 51 51 51 51 51 50 50 49 48 48 48 48 48 47 47 47 48 48 48 47 45 41 40 38 38 37 36 35 35 35 35 37 36 36 36 37 38
44 44 42 44 47 48 48 48 48 48 48 49 48 47 48 48 47 44 44 43 42 41 42 43 43 47 50 46 42 38 37 35 34 34 34 34 34 34 34 35 34 34 35
42 41 42 42 41 41 42 42 42 41 41 42 42 43 43 49 51 49 42 39 40 40 39 40 41 44 50 54 53 49 42 36 34 34 33 33 32 32 33 32 32 32 37
42 41 41 41 40 39 40 40 38 37 37 37 39 40 40 43 51 50 46 37 36 36 36 37 40 43 42 40 49 49 47 49 47 36 33 32 32 34 34 35 39 39 38
40 40 40 40 39 38 38 36 35 35 35 35 36 37 39 44 49 48 45 34 33 34 34 35 35 36 38 40 38 37 37 37 39 41 36 36 36 41 40 41 40 38 38
40 39 40 39 38 37 36 35 34 34 34 35 35 35 36 38 48 47 39 33 33 33 36 36 36 35 44 49 38 37 37 39 45 48 47 47 47 46 45 35 32 32 33
40 40 40 39 38 37 36 35 34 34 35 36 34 34 43 36 48 46 39 35 32 34 33 35 44 41 48 49 43 41 39 37 38 38 34 35 36 36 42 34 32 30 30
41 40 39 39 38 37 35 34 33 33 33 32 32 31 33 36 37 48 47 36 35 34 33 33 35 46 48 48 46 41 40 39 37 31 31 31 31 32 32 32 32 31 32
41 40 38 37 41 38 35 33 33 32 31 30 30 30 31 32 43 46 48 47 45 38 35 35 37 46 46 46 44 47 44 39 32 32 36 36 37 37 36 33 32 32 32
39 38 37 36 36 35 33 32 31 31 31 30 31 30 31 31 32 46 45 46 46 39 40 42 44 44 43 41 44 45 41 33 37 36 35 36 37 38 36 34 34 33 32
39 36 35 35 34 33 34 33 32 31 30 32 31 30 29 31 31 32 34 34 43 41 43 39 42 41 42 39 37 40 39 37 37 36 35 36 37 37 36 34 32 34 33
39 37 36 36 35 32 33 32 33 31 33 31 31 31 29 29 32 38 39 38 39 41 39 37 35 34 35 36 36 37 37 37 37 37 37 36 36 37 36 37 35 35 33
39 38 37 36 33 32 31 31 42 41 43 43 42 35 32 39 43 44 45 44 43 43 38 35 34 34 34 34 34 34 36 36 36 37 37 36 36 36 35 37 37 34 34
43 40 39 37 35 32 30 31 31 38 45 44 44 43 41 40 44 44 44 43 43 41 34 34 34 34 34 34 34 34 34 35 36 35 35 35 36 36 35 34 35 34 34
44 45 40 36 35 32 31 31 31 33 32 32 42 41 43 43 43 44 43 41 35 36 34 32 33 34 34 34 34 34 34 35 35 33 35 35 35 35 33 34 34 33 34
43 42 39 36 35 35 32 31 32 32 32 31 32 40 41 44 43 43 42 35 32 32 33 33 34 34 35 35 34 34 35 35 36 36 36 35 35 34 33 34 34 36 36
43 45 40 36 36 33 32 32 32 32 31 31 31 31 32 36 32 32 33 32 33 32 33 34 34 34 34 34 34 35 35 35 35 34 34 34 35 34 33 34 34 31 33
42 42 41 37 37 34 34 33 33 33 32 31 32 33 38 31 30 30 29 29 32 32 32 33 33 33 34 34 33 33 33 33 34 34 34 34 34 33 35 35 33 34 34
42 41 38 37 36 34 35 34 33 33 32 32 31 33 40 33 30 29 29 28 31 33 34 34 34 34 33 33 34 33 32 33 33 34 33 34 34 35 35 34 34 34 34
41 39 37 37 37 38 36 34 33 34 34 33 32 32 33 31 30 29 29 28 28 29 33 34 34 31 30 31 34 34 33 33 34 35 34 34 33 34 34 33 33 33 32
41 39 38 36 36 35 34 34 35 35 34 33 32 32 31 31 29 29 28 27 26 27 26 29 29 28 32 34 35 35 35 36 36 36 35 34 34 34 32 32 33 32 32
39 38 37 36 37 35 35 34 34 34 34 34 33 32 31 30 29 29 27 26 27 29 29 26 27 31 32 31 32 32 34 36 35 37 35 34 33 34 34 33 34 34 33
38 37 37 37 36 36 35 33 33 33 33 33 32 30 29 27 28 27 27 27 27 29 27 26 28 31 31 31 31 34 37 38 37 38 37 36 34 34 34 34 34 34 34

GFSGL_sfc_temp_135.txt.gz
Temp
55 56 57 57 57 56 55 54 53 53 53 53 53 53 53 53 54 54 54 55 55 55 54 55 54 53 51 51 51 51 50 50 48 46 49 51 52 55 56 57 56 56 56
54 54 53 54 56 55 54 53 55 53 54 53 53 53 53 54 55 56 56 56 56 54 54 53 52 54 50 50 49 47 47 47 48 47 46 50 53 52 52 53 52 55 54
54 53 53 52 52 52 53 54 55 54 54 54 53 52 52 52 53 54 55 54 54 54 54 53 51 51 48 48 47 47 46 47 47 49 49 49 49 50 50 51 51 52 53
52 52 51 52 52 52 52 53 53 53 52 51 51 50 50 50 50 51 51 51 52 52 51 51 53 52 48 48 47 47 47 47 47 47 45 46 47 48 48 46 47 49 48
50 49 49 49 51 51 51 51 52 52 52 51 51 50 50 50 49 47 48 49 49 49 50 50 50 52 52 52 50 48 48 46 46 45 45 45 46 46 44 46 43 46 49
51 49 50 50 50 49 49 50 50 49 50 50 50 51 51 52 52 50 48 48 47 48 47 48 49 51 54 54 51 49 49 47 45 46 45 43 44 44 45 44 43 44 41
50 49 49 49 48 48 49 49 48 47 49 48 49 50 50 51 51 50 47 46 45 46 47 47 48 48 49 50 52 50 50 50 48 48 45 45 42 46 44 45 45 44 44
49 48 49 49 47 47 47 46 46 48 48 47 48 49 49 50 50 48 46 45 45 45 46 46 46 47 48 48 48 48 48 48 48 48 45 45 45 46 47 45 44 43 45
48 48 48 48 46 46 45 45 45 46 46 46 47 47 48 49 48 46 45 45 44 44 45 46 46 47 46 49 47 46 46 46 48 47 46 45 45 45 46 44 41 39 39
48 48 48 48 47 46 45 44 44 46 45 45 44 46 47 48 48 47 45 45 44 44 44 44 45 47 48 49 45 44 42 43 44 44 44 43 43 43 41 42 41 37 35
49 48 47 47 47 46 44 45 44 44 44 44 43 44 45 46 48 48 46 46 45 44 44 44 46 46 48 47 46 45 44 43 41 42 42 43 43 43 44 44 43 39 35
48 47 46 46 46 44 44 43 43 43 42 41 42 42 43 44 45 48 48 47 46 44 43 44 46 46 46 46 45 46 44 42 44 44 42 41 41 42 45 45 44 43 43
47 46 46 45 45 44 44 42 41 42 41 40 41 41 42 43 44 48 47 47 46 45 44 44 45 44 44 43 45 45 42 43 42 40 39 39 41 42 43 42 44 44 43
47 46 44 44 43 43 43 43 42 41 40 41 41 40 40 41 42 43 44 45 45 45 44 43 43 42 42 42 43 42 42 40 40 39 38 39 41 40 40 41 39 40 41
47 45 44 44 43 42 43 42 42 43 43 42 42 42 40 39 41 42 43 44 44 43 42 41 39 40 40 40 40 39 39 40 39 39 38 39 38 39 39 41 39 38 35
46 45 43 43 41 41 41 40 43 43 44 44 43 42 41 42 43 45 45 45 44 43 41 38 37 38 37 37 37 37 38 38 37 37 38 38 38 38 38 40 39 37 35
48 45 44 43 41 40 39 40 38 43 45 45 45 44 42 43 45 45 45 44 44 43 39 37 37 37 37 37 36 36 36 37 38 37 37 37 38 38 39 38 38 36 37
49 46 45 42 42 40 40 40 40 40 39 41 45 44 44 44 44 44 44 43 40 40 38 36 36 37 36 36 37 36 36 37 37 37 37 38 37 36 36 37 38 36 35
47 46 45 43 42 41 40 39 40 40 40 40 40 43 44 44 44 43 43 39 37 37 37 36 37 37 36 36 36 36 37 38 38 37 36 36 38 37 36 37 36 36 36
48 47 44 42 41 39 39 39 39 39 39 39 39 40 40 41 40 39 39 38 37 37 37 36 36 36 37 36 36 37 36 36 35 35 37 37 37 36 36 36 35 34 36
46 45 44 41 41 39 39 39 39 38 38 38 39 39 40 39 39 38 37 37 36 36 36 36 36 36 37 36 36 35 35 35 35 35 35 36 36 36 37 37 35 35 37
45 44 42 40 40 38 39 39 38 38 37 38 38 38 41 40 38 37 36 36 36 37 37 36 35 35 35 35 36 36 35 35 35 36 35 36 37 35 35 35 37 37 36
45 43 41 41 40 40 39 39 38 38 37 37 38 37 39 38 37 36 36 36 36 36 37 37 34 34 36 36 37 36 34 34 35 35 35 34 35 36 36 36 36 34 34
44 42 41 40 39 39 38 38 37 37 37 37 37 37 37 37 36 35 35 35 35 36 36 35 35 34 35 35 36 36 36 36 37 36 36 36 36 36 35 35 34 34 34
42 41 40 39 39 38 38 37 37 36 36 37 36 37 37 36 36 35 35 35 35 34 35 35 34 35 35 35 36 36 36 36 37 37 38 37 35 35 34 34 34 34 34
40 40 39 40 38 39 37 36 36 36 37 36 36 36 36 35 35 34 34 34 34 34 34 34 35 35 37 37 37 36 36 37 38 38 38 37 36 36 37 36 36 36 35

GFSGL_sfc_temp_138.txt.gz
Temp
57 57 58 60 60 59 58 57 56 55 54 54 54 53 53 53 54 55 55 56 55 55 55 56 55 56 54 55 54 54 52 53 50 47 49 54 57 57 59 59 60 61 61
56 57 56 56 57 56 55 56 57 55 57 55 56 54 54 54 55 55 55 55 55 54 54 53 52 54 51 51 51 49 49 51 49 47 48 50 53 55 57 57 57 59 58
55 54 55 54 53 53 55 56 58 58 57 58 58 58 58 58 57 57 57 57 56 56 55 55 53 52 50 49 49 50 48 49 51 50 49 54 54 55 53 54 54 55 57
57 55 53 53 53 54 54 55 57 58 58 57 55 55 54 55 54 55 54 53 52 53 52 52 52 51 50 50 50 50 50 49 51 51 50 50 51 52 52 50 50 54 53
57 52 50 51 51 52 52 53 53 53 53 53 52 52 52 51 51 50 51 51 50 50 52 53 53 54 54 53 52 51 51 50 50 50 49 50 51 51 49 50 49 51 54
54 51 52 53 56 57 58 58 57 56 56 56 55 55 54 53 52 52 52 53 54 53 52 54 56 55 55 53 53 53 54 52 51 51 50 48 50 51 50 48 47 48 47
59 58 59 59 58 58 59 58 57 57 58 57 56 56 55 54 52 52 52 54 54 54 54 53 53 53 55 56 53 52 52 51 50 53 50 50 48 47 46 45 49 48 48
59 59 59 59 57 58 58 57 58 58 56 56 55 56 54 53 51 50 51 53 53 53 53 53 53 53 53 54 54 53 53 53 52 53 50 48 48 49 47 48 48 48 50
59 59 59 58 57 57 56 56 57 56 56 56 56 55 54 52 49 49 52 53 52 51 52 52 53 53 48 49 51 50 51 51 50 48 47 46 45 45 46 47 47 44 45
60 59 59 59 57 56 55 54 56 56 54 55 54 55 52 52 48 48 52 53 51 51 51 50 46 50 49 49 51 49 46 47 47 48 48 48 47 47 43 48 47 43 41
60 59 58 58 57 56 55 55 54 54 53 53 52 53 54 53 50 48 48 52 51 50 50 50 51 47 48 48 47 49 48 48 44 47 47 47 49 49 50 49 48 46 41
59 57 57 57 56 55 54 54 54 53 52 51 51 50 52 52 49 49 48 49 48 50 49 50 49 46 47 46 47 46 45 45 46 45 45 44 45 47 48 48 48 48 48
57 56 56 56 55 55 54 52 52 52 51 50 50 49 49 50 51 49 49 48 48 50 50 47 45 45 44 45 45 46 44 44 43 41 41 43 44 46 47 47 47 46 46
57 57 56 55 54 55 55 54 52 51 50 50 49 49 49 49 50 50 50 49 47 48 46 47 46 44 43 44 44 44 45 43 42 41 42 44 45 45 43 44 42 43 41
58 57 56 55 54 54 54 53 52 54 52 50 50 50 47 47 49 49 49 49 50 49 46 46 43 44 43 42 42 42 43 43 41 41 41 41 42 42 42 44 43 42 39
58 56 55 55 54 53 51 48 46 48 47 47 49 50 50 48 47 45 46 46 45 45 45 43 43 43 41 40 40 40 41 40 40 40 41 40 40 41 41 41 41 39 37
58 57 56 54 53 51 50 49 46 44 45 46 46 46 47 47 46 46 46 45 45 45 43 43 42 41 40 40 40 39 38 40 41 40 39 39 40 41 40 39 39 38 37
59 53 56 54 52 51 50 49 49 47 45 45 46 46 45 45 46 45 46 44 42 42 43 41 40 41 40 39 39 39 40 40 40 40 40 40 38 36 38 38 38 37 37
58 56 55 54 52 51 50 49 49 49 48 47 46 45 45 45 45 45 44 44 42 42 42 41 41 40 40 37 36 37 36 37 39 38 37 36 38 39 38 38 38 38 38
57 53 53 53 51 49 49 48 48 47 47 46 45 45 45 44 43 44 44 44 43 42 42 40 41 40 40 39 39 38 38 38 38 38 38 38 39 39 37 38 38 37 34
55 54 51 52 50 48 47 47 47 47 46 44 45 46 45 44 44 43 42 42 41 40 40 40 39 39 39 39 38 38 37 37 37 37 38 38 38 37 39 37 35 36 38
55 54 51 50 49 48 46 48 47 46 46 44 44 43 43 43 43 42 42 40 40 40 41 39 37 37 37 37 38 37 37 36 37 37 37 37 37 38 35 36 38 38 37
54 53 50 49 49 47 46 46 46 46 45 43 41 39 40 41 41 42 40 40 40 40 41 39 37 37 39 38 39 37 36 37 37 37 36 37 37 37 37 36 36 36 36
53 52 49 48 47 46 46 45 46 44 42 41 39 38 40 42 42 41 41 40 40 40 40 39 39 38 38 38 38 38 38 39 38 37 37 36 36 36 36 36 35 34 34
51 51 49 47 44 46 45 46 43 42 41 40 39 39 41 43 42 41 40 39 39 39 39 39 39 38 38 38 38 38 38 37 37 37 38 38 36 36 36 35 35 36 36
50 49 48 47 46 45 45 43 43 42 40 39 40 42 42 42 42 40 39 39 38 38 38 38 38 38 38 38 38 37 36 37 38 38 38 38 37 36 36 35 35 35 35

GFSGL_sfc_temp_141.txt.gz
Temp
57 59 58 57 57 56 56 55 55 56 55 53 53 53 52 53 54 54 55 56 55 56 57 57 55 56 51 51 51 51 51 51 49 46 48 51 53 55 56 57 57 57 58
58 57 57 56 55 55 55 55 56 55 55 55 54 53 53 53 53 54 54 55 55 54 53 53 51 53 49 49 49 49 49 49 49 45 48 49 51 54 55 55 56 58 56
58 57 55 56 55 55 55 56 57 57 57 58 56 55 55 55 55 55 55 56 55 55 55 54 52 51 50 51 50 49 49 51 51 48 46 50 53 53 52 53 53 54 56
56 58 55 54 54 56 57 57 57 57 56 56 56 54 54 55 56 57 57 56 57 56 56 54 53 51 50 49 49 48 49 48 49 47 48 48 50 51 49 48 48 51 51
57 57 56 57 56 57 55 56 56 56 57 57 55 54 53 53 53 51 51 51 51 50 51 52 52 54 55 53 51 50 50 49 49 48 47 47 48 48 47 48 47 49 51
57 55 54 54 54 54 54 54 54 54 56 57 56 55 55 55 54 53 53 52 52 52 51 53 54 55 55 55 55 55 53 50 48 48 47 46 48 48 48 46 46 46 45
55 56 57 58 58 59 59 59 58 58 58 57 57 56 53 53 54 55 55 53 52 53 53 52 53 54 54 53 53 53 52 51 50 49 49 49 48 48 46 44 45 46 46
61 61 62 61 60 60 60 59 59 59 58 57 56 56 53 52 52 53 55 54 54 54 55 54 54 53 53 54 53 53 53 52 51 52 49 48 48 47 47 47 46 46 48
62 62 62 61 59 59 58 58 59 58 57 57 57 55 53 51 51 52 55 54 52 52 53 54 54 53 50 50 51 50 51 51 50 48 48 47 46 46 46 44 44 43 43
62 62 62 62 60 58 58 57 58 58 57 57 56 57 53 50 49 51 54 54 51 51 52 50 47 50 49 50 50 50 47 47 47 47 45 45 46 47 45 45 45 41 40
64 63 62 61 60 59 57 57 57 56 55 55 54 54 54 52 49 49 50 53 52 51 50 50 49 48 48 48 48 49 47 48 45 46 45 45 47 47 47 48 47 44 40
62 61 60 60 59 58 56 56 56 54 53 53 53 52 53 52 50 48 49 51 49 51 49 50 47 47 47 47 47 47 47 46 46 44 43 43 43 45 46 46 46 45 45
60 59 59 59 58 58 56 54 54 54 52 52 51 50 50 52 51 50 49 49 48 50 50 47 46 45 45 45 46 46 45 44 43 41 40 41 42 44 45 44 45 45 45
59 59 59 58 57 57 57 56 54 53 52 51 50 49 49 49 50 49 49 48 48 47 46 46 46 45 44 44 43 44 44 43 42 41 41 42 43 42 41 42 41 42 40
60 59 58 58 57 56 56 55 54 56 54 51 51 50 48 47 50 51 50 50 50 49 47 46 44 43 42 42 42 42 42 42 41 41 40 40 40 41 41 42 41 40 38
60 59 59 58 56 56 55 53 46 50 49 49 51 52 52 51 51 49 47 46 46 46 45 43 41 42 40 40 39 40 41 41 41 40 40 40 40 40 40 41 41 39 36
61 60 58 57 56 54 53 51 46 44 46 47 48 49 50 48 47 47 46 46 46 45 42 43 41 41 40 40 39 39 38 40 42 40 40 40 40 40 39 38 39 39 37
62 56 58 56 56 54 53 52 51 46 44 44 46 47 47 47 46 46 46 45 43 43 42 40 40 40 39 39 39 39 39 40 39 39 39 39 38 37 37 38 38 36 36
61 59 58 55 55 54 53 52 51 49 48 47 45 45 46 46 46 46 46 43 42 40 41 41 41 40 40 39 38 37 38 37 38 38 38 38 38 37 37 37 37 38 38
60 56 56 55 54 52 51 50 50 49 48 47 45 43 44 44 42 42 43 43 43 42 42 41 40 40 40 39 38 38 37 38 38 38 38 38 38 38 37 36 36 34 35
58 57 55 55 53 51 50 49 49 47 47 46 46 46 45 42 41 41 42 43 41 41 41 41 40 39 39 39 38 37 37 37 37 37 37 37 38 36 37 37 36 35 35
57 56 53 53 53 50 49 50 48 47 47 45 46 45 45 43 41 42 43 42 42 42 41 40 38 38 38 38 38 37 36 35 36 37 37 37 37 37 37 36 36 36 36
57 55 52 53 52 50 49 49 47 47 46 46 44 41 42 40 41 42 41 41 41 40 41 39 37 36 38 38 38 37 35 35 37 37 36 36 36 37 36 35 35 35 35
55 54 51 51 50 48 47 47 47 46 46 43 40 41 40 40 41 41 41 40 40 40 39 39 37 36 37 38 38 38 38 38 38 36 36 35 35 36 36 35 34 35 34
54 53 51 50 48 46 46 46 46 46 44 41 40 39 40 41 42 41 40 40 39 38 38 38 38 38 38 38 38 38 38 37 37 37 37 37 36 36 36 35 35 34 34
52 52 50 49 46 47 46 46 45 43 42 41 40 40 39 41 42 41 40 39 38 37 38 38 38 38 38 38 38 38 36 37 37 38 37 37 36 36 35 34 35 34 34

GFSGL_sfc_temp_144.txt.gz
Temp
56 56 56 55 55 54 54 54 53 53 53 53 53 53 53 53 53 54 54 55 55 55 54 54 53 53 51 51 51 51 50 50 48 46 48 49 51 50 53 53 54 51 53
56 55 54 55 55 54 53 53 54 53 54 53 53 53 52 53 53 53 53 54 54 54 53 52 51 53 49 49 48 47 47 48 47 44 45 47 49 51 51 49 52 55 50
55 55 54 54 54 53 53 54 55 55 54 54 54 53 53 53 53 53 53 53 53 53 53 52 50 50 48 48 47 47 47 50 48 45 44 47 48 49 48 48 47 46 52
56 53 53 54 54 55 56 56 56 56 55 54 53 53 53 53 53 54 53 53 52 53 53 52 51 50 49 48 48 47 48 47 47 46 45 45 46 47 44 41 41 44 44
55 54 52 54 54 55 54 54 55 53 53 53 52 52 51 51 51 48 49 49 48 49 50 50 51 52 54 52 49 47 47 45 45 45 43 41 41 41 39 40 39 40 42
53 53 53 53 53 51 52 52 53 53 53 53 52 52 51 53 55 54 52 50 49 49 49 48 51 54 54 56 55 55 50 43 41 41 40 39 39 38 38 37 36 35 35
53 54 54 55 54 53 54 54 53 51 50 48 47 47 46 48 56 56 54 48 47 48 47 47 50 52 50 48 53 53 52 52 50 41 38 37 36 37 37 37 36 35 35
54 56 57 54 51 51 50 48 47 47 46 46 46 45 44 50 55 56 55 46 45 46 46 46 45 45 47 47 45 44 43 43 44 46 39 38 39 39 42 44 40 37 38
53 52 52 52 50 50 48 47 47 46 45 45 45 43 41 43 54 55 50 44 44 44 44 43 43 41 51 51 44 43 42 42 50 50 49 48 48 47 44 37 35 38 34
53 53 53 52 50 48 47 46 46 46 46 47 45 43 48 40 52 53 49 44 41 42 41 42 50 45 50 50 42 40 39 42 44 44 43 45 46 42 46 37 36 34 37
55 54 52 51 49 48 47 46 45 45 45 44 44 43 41 41 43 51 52 45 43 42 42 41 42 49 49 49 49 44 45 44 45 43 42 43 44 45 43 45 45 42 38
54 52 50 49 53 50 45 45 45 43 42 41 41 40 42 41 48 50 51 50 49 43 41 41 42 48 47 47 46 48 48 46 42 41 41 40 41 41 42 43 44 44 43
52 49 49 49 48 47 45 43 43 43 41 41 41 39 39 42 42 50 50 50 49 43 42 45 46 46 46 45 47 47 45 41 40 38 38 39 40 41 42 42 43 43 43
51 48 48 47 46 46 47 46 43 42 41 42 41 39 39 39 39 40 42 41 47 44 45 41 43 43 45 44 43 43 42 40 40 38 38 39 41 40 39 40 38 39 38
52 51 49 49 46 45 45 44 44 44 44 40 40 40 38 37 41 44 43 41 40 44 41 38 37 40 40 40 39 40 40 40 38 39 38 38 38 39 39 40 39 38 36
52 51 50 48 45 45 43 39 50 50 51 52 51 45 44 49 52 51 48 47 48 47 39 35 35 39 38 38 38 38 38 39 38 38 38 38 38 38 38 39 39 37 35
53 52 51 50 47 43 43 40 35 41 48 50 51 51 49 49 50 49 48 46 46 44 35 34 35 37 38 39 37 37 36 37 38 37 37 36 38 38 38 36 36 37 36
53 54 51 48 47 45 44 41 39 37 35 35 47 46 49 48 48 47 47 46 40 41 36 33 34 36 36 37 37 37 36 37 37 37 37 37 36 35 33 34 35 35 35
54 52 50 47 46 46 43 41 41 39 37 36 37 44 46 47 47 47 46 40 36 36 36 35 36 36 36 35 35 34 35 35 35 35 36 36 35 35 34 34 35 37 36
54 53 51 49 46 45 42 42 41 40 39 38 37 36 40 42 40 40 40 40 37 37 37 35 36 36 35 35 36 35 35 36 36 35 35 35 36 36 35 35 35 33 32
51 50 52 48 46 45 44 43 42 40 39 38 38 41 43 40 38 38 38 38 36 36 35 35 34 34 34 35 34 34 35 35 35 35 35 35 36 35 36 35 34 34 34
50 48 49 47 46 45 44 44 41 40 40 40 40 42 45 39 38 38 38 38 37 38 37 33 32 34 32 32 34 33 35 34 35 35 35 35 36 36 35 34 34 34 34
50 48 48 45 46 47 44 42 41 42 41 42 41 41 41 38 38 38 38 37 37 35 35 34 32 34 36 35 37 36 34 34 35 35 34 34 34 33 34 33 34 33 33
50 48 47 44 44 43 41 41 41 43 41 41 39 39 39 38 37 38 36 35 34 34 33 31 31 35 36 37 37 37 37 37 36 35 36 34 34 34 34 34 34 34 33
47 46 45 43 44 41 41 40 40 40 39 38 38 38 38 37 38 36 34 33 32 31 31 29 31 37 38 38 37 37 37 37 36 37 36 35 34 34 34 34 34 33 33
46 46 44 42 41 41 40 38 36 36 36 36 36 37 37 38 37 34 32 32 30 30 31 29 33 37 38 37 38 38 36 37 36 37 36 34 33 34 34 33 33 33 33